Temp
8 8 7 6 6 5 5 5 6 5 5 5 4 3 2 2 1 1 0 -0 1 -0 -2 -3 -4 -5 -6 -7 -8 -8 -9 -9 -9 -6 -6 -8 -8 -9 -9 -9 -9 -9 -9
8 7 7 6 5 5 5 5 5 4 5 5 4 3 2 1 1 -0 -0 -1 -0 -1 -3 -4 -5 -7 -7 -8 -9 -9 -10 -10 -10 -10 -9 -9 -10 -10 -10 -10 -10 -9 -9
7 7 5 5 4 4 4 4 4 4 4 3 3 2 1 1 -0 -1 -1 -2 -1 -2 -3 -4 -6 -8 -8 -9 -10 -11 -11 -11 -11 -11 -11 -10 -11 -10 -10 -10 -9 -9 -9
7 6 5 4 4 4 3 3 3 3 4 3 2 2 1 0 -1 -2 -3 -3 -3 -3 -5 -6 -7 -8 -9 -10 -11 -12 -12 -12 -12 -12 -12 -11 -10 -10 -9 -9 -8 -8 -8
6 4 4 4 3 2 1 2 1 2 3 2 2 1 0 -1 -2 -3 -3 -3 -3 -5 -6 -7 -8 -9 -10 -11 -12 -11 -11 -11 -12 -12 -11 -10 -9 -8 -8 -8 -8 -8 -8
4 4 4 3 2 1 0 -0 0 1 1 0 -0 -0 -2 -3 -3 -3 -3 -3 -5 -6 -7 -8 -10 -10 -11 -10 -10 -9 -9 -10 -10 -10 -9 -8 -8 -8 -8 -8 -8 -8 -8
4 3 3 2 0 -1 -1 -2 -1 -1 -1 -2 -3 -3 -4 -4 -4 -7 -6 -4 -5 -7 -8 -10 -10 -10 -11 -11 -10 -10 -9 -9 -8 -8 -9 -9 -8 -9 -8 -9 -8 -8 -8
3 2 1 0 -1 -3 -3 -3 -3 -3 -3 -5 -5 -5 -4 -4 -6 -6 -8 -6 -7 -8 -9 -10 -10 -10 -10 -10 -10 -10 -10 -10 -10 -10 -9 -9 -9 -9 -9 -9 -8 -8 -8
1 1 -0 -1 -3 -4 -5 -5 -5 -5 -6 -6 -6 -6 -6 -5 -6 -6 -7 -8 -9 -10 -10 -10 -10 -10 -10 -10 -9 -9 -9 -9 -9 -9 -9 -9 -9 -9 -9 -10 -10 -10 -9
1 -0 -2 -3 -4 -5 -5 -6 -6 -6 -7 -8 -8 -7 -6 -5 -7 -7 -8 -9 -10 -10 -10 -10 -10 -11 -10 -9 -9 -9 -9 -10 -10 -10 -11 -11 -12 -12 -12 -12 -12 -11 -11
1 -0 -2 -3 -4 -5 -6 -7 -8 -8 -9 -9 -9 -9 -7 -6 -7 -7 -7 -10 -9 -10 -10 -10 -10 -10 -10 -9 -8 -9 -10 -10 -10 -12 -12 -14 -14 -14 -13 -13 -12 -12 -11
0 -1 -3 -4 -5 -6 -7 -8 -9 -9 -10 -11 -11 -11 -11 -9 -8 -8 -8 -9 -10 -10 -10 -10 -10 -10 -10 -9 -10 -11 -11 -10 -12 -13 -15 -15 -14 -14 -13 -12 -12 -12 -12
-1 -4 -6 -7 -8 -8 -9 -11 -11 -11 -10 -12 -11 -12 -12 -11 -10 -9 -8 -7 -9 -9 -10 -10 -10 -11 -11 -12 -12 -12 -13 -14 -15 -16 -15 -15 -14 -13 -13 -14 -13 -12 -12
-3 -6 -7 -8 -10 -10 -10 -11 -11 -11 -10 -11 -10 -11 -12 -12 -11 -10 -9 -8 -9 -9 -10 -11 -11 -12 -13 -14 -13 -13 -14 -15 -16 -16 -15 -15 -15 -14 -14 -14 -12 -12 -12
-6 -8 -9 -10 -11 -11 -11 -11 -11 -10 -9 -10 -10 -10 -11 -12 -11 -10 -10 -10 -10 -11 -11 -12 -13 -13 -14 -15 -15 -15 -16 -16 -16 -16 -16 -15 -15 -15 -14 -14 -13 -12 -12
-8 -9 -10 -10 -12 -12 -12 -12 -11 -11 -10 -9 -9 -10 -10 -10 -10 -10 -10 -10 -11 -12 -13 -13 -14 -15 -17 -17 -16 -16 -16 -16 -16 -16 -16 -16 -16 -15 -15 -14 -13 -12 -13
-7 -8 -10 -11 -12 -12 -12 -12 -12 -10 -10 -8 -8 -10 -11 -10 -9 -9 -9 -9 -11 -13 -13 -15 -16 -17 -17 -18 -18 -18 -18 -17 -17 -18 -17 -17 -16 -16 -15 -14 -13 -13 -13
-7 -8 -10 -11 -12 -12 -12 -12 -11 -11 -10 -9 -9 -10 -9 -9 -8 -8 -9 -11 -13 -16 -14 -15 -16 -17 -18 -18 -18 -18 -18 -18 -18 -19 -18 -18 -17 -16 -15 -13 -13 -13 -14
-8 -8 -11 -12 -12 -12 -12 -12 -11 -10 -9 -9 -10 -9 -9 -9 -9 -10 -13 -14 -15 -16 -16 -16 -17 -17 -18 -18 -18 -18 -18 -17 -19 -20 -19 -18 -17 -16 -14 -14 -14 -14 -14
-8 -9 -11 -12 -13 -12 -12 -11 -11 -10 -10 -10 -10 -10 -10 -9 -12 -14 -15 -15 -15 -16 -16 -16 -17 -17 -18 -18 -17 -18 -17 -17 -19 -20 -19 -18 -17 -16 -14 -14 -14 -14 -14
-9 -10 -12 -12 -12 -12 -12 -11 -11 -11 -11 -11 -12 -12 -12 -13 -17 -16 -16 -16 -16 -17 -17 -17 -16 -16 -17 -17 -18 -17 -17 -17 -18 -19 -19 -18 -17 -15 -15 -15 -15 -14 -14
-11 -12 -13 -13 -13 -13 -12 -12 -13 -13 -13 -15 -14 -12 -13 -14 -15 -16 -17 -17 -17 -17 -16 -16 -16 -17 -17 -17 -17 -17 -18 -17 -17 -19 -19 -18 -17 -15 -15 -15 -15 -15 -15
-13 -13 -13 -13 -13 -13 -13 -14 -14 -14 -15 -15 -14 -13 -17 -17 -17 -17 -17 -17 -17 -17 -17 -17 -17 -16 -17 -17 -17 -17 -17 -16 -16 -17 -19 -18 -15 -15 -16 -16 -15 -15 -15
-14 -14 -15 -14 -14 -14 -14 -15 -15 -16 -15 -15 -16 -18 -19 -18 -18 -18 -17 -17 -17 -17 -17 -17 -17 -17 -17 -16 -16 -16 -16 -15 -15 -15 -16 -16 -15 -16 -16 -16 -16 -15 -15
-16 -16 -16 -16 -16 -16 -16 -17 -17 -17 -17 -18 -19 -20 -19 -18 -18 -18 -18 -18 -18 -17 -17 -17 -18 -17 -17 -17 -16 -16 -15 -15 -14 -15 -15 -15 -15 -16 -16 -16 -16 -16 -16
-18 -17 -17 -18 -18 -18 -18 -19 -19 -19 -19 -20 -20 -19 -19 -19 -18 -18 -18 -18 -18 -18 -18 -18 -17 -18 -17 -17 -16 -16 -15 -15 -15 -15 -14 -15 -16 -16 -17 -17 -17 -16 -16
Height
690 693 698 702 704 713 716 719 725 733 741 747 750 758 765 770 773 776 778 781 778 778 786 788 790 791 794 797 800 799 799 799 791 770 774 775 773 769 767 767 761 755 750
676 684 687 693 698 702 706 709 716 723 731 739 744 748 754 759 765 768 770 774 772 773 778 782 785 789 791 791 791 793 793 792 788 771 771 772 769 766 761 754 753 749 745
672 674 679 683 689 692 695 700 707 715 723 728 736 739 744 749 756 761 764 769 768 768 770 775 778 781 786 787 786 787 788 788 785 779 759 768 766 762 753 748 747 742 738
662 665 666 670 673 680 684 691 698 705 712 720 728 731 738 741 747 753 758 761 762 765 767 770 772 775 778 781 781 784 784 781 782 779 769 759 761 759 755 746 736 736 729
648 652 652 655 665 677 677 681 690 697 704 712 718 725 729 733 738 744 752 752 755 760 764 765 767 769 771 773 774 777 779 778 777 776 771 761 754 753 752 745 736 724 718
637 638 642 648 653 662 666 671 681 689 696 705 711 715 719 724 732 739 744 745 750 753 757 759 763 762 765 768 772 772 775 775 774 771 766 761 750 749 744 740 732 722 699
624 626 631 637 645 651 656 663 670 677 686 695 704 709 713 718 727 734 736 739 743 748 755 760 758 758 760 761 765 766 769 769 769 767 759 756 745 745 738 729 727 717 700
616 621 624 631 638 643 651 656 662 667 674 685 695 701 706 711 719 724 729 732 736 742 749 753 752 754 757 758 761 759 759 758 758 757 754 748 743 737 734 723 711 700 687
610 612 618 623 628 633 640 648 655 662 670 676 687 696 702 710 718 722 724 727 732 740 746 746 747 751 753 754 754 754 753 750 748 748 745 740 735 729 726 718 705 699 679
605 611 616 623 626 628 638 646 650 658 666 674 678 690 697 704 709 718 721 724 729 734 737 739 741 746 747 747 747 747 745 744 741 737 734 729 725 718 714 711 703 693 681
611 613 615 618 624 630 637 643 649 657 662 672 676 682 689 701 704 712 717 719 722 728 730 734 733 738 741 743 740 738 737 737 733 728 725 720 715 710 703 698 693 688 674
610 612 616 620 622 628 633 637 644 654 660 667 673 681 689 694 696 706 712 716 719 721 726 729 732 732 732 735 736 731 729 728 725 721 717 711 706 699 693 687 681 674 665
612 612 616 619 626 626 630 636 642 646 654 662 668 671 680 686 690 697 704 709 711 711 716 716 721 721 725 727 728 728 721 719 718 715 710 703 698 689 682 674 666 658 647
618 613 608 616 622 622 625 633 637 642 647 651 660 669 673 676 681 690 698 704 709 711 713 715 718 717 718 718 720 721 718 713 711 708 702 695 688 680 671 663 651 641 632
613 609 606 612 609 616 618 619 626 628 632 634 643 652 663 672 672 679 687 697 706 708 712 714 715 715 717 717 714 716 711 706 704 701 696 688 681 672 662 654 645 632 622
606 608 604 601 607 612 614 617 623 630 634 641 645 644 655 666 674 681 686 691 702 711 711 711 711 711 714 716 712 709 704 700 699 696 692 685 677 668 656 645 637 626 613
598 598 597 597 603 605 604 605 620 632 630 631 639 645 651 660 671 679 680 686 695 704 708 711 711 711 710 713 710 704 699 697 696 692 688 681 673 661 651 638 625 615 601
590 589 589 587 591 595 601 604 604 613 627 630 636 635 643 659 669 675 681 682 691 694 701 707 710 706 709 709 706 697 695 691 689 686 682 674 664 654 642 630 617 605 593
578 578 576 581 586 590 592 597 604 610 622 616 627 635 637 652 665 670 677 678 686 689 694 700 703 702 706 706 698 693 691 684 683 681 675 666 656 646 633 623 609 598 585
568 564 565 573 579 584 588 592 596 602 612 622 624 628 636 647 650 661 670 677 683 686 688 694 697 696 701 699 690 688 683 678 677 674 667 658 649 638 626 614 602 587 575
557 558 561 568 572 576 580 587 593 599 605 613 620 629 637 641 647 653 664 673 679 681 683 687 689 693 697 691 686 681 677 675 673 668 660 652 642 628 619 609 596 582 568
549 553 558 563 568 574 579 584 590 598 606 610 620 629 636 641 647 653 662 669 673 676 679 680 685 690 690 685 678 674 674 670 666 661 654 646 635 624 613 604 590 575 561
547 552 557 562 568 574 580 585 591 599 604 612 618 625 633 641 647 653 659 664 668 672 674 676 682 684 685 679 673 671 669 665 661 655 647 639 630 618 610 599 585 570 555
552 556 559 564 570 576 582 588 595 600 605 613 619 627 633 641 646 651 656 661 665 668 670 675 677 678 677 673 670 668 664 660 656 648 643 636 626 616 606 595 582 567 552
560 563 566 570 576 581 588 593 598 602 609 616 624 629 635 641 646 652 656 658 662 666 669 672 673 672 670 668 665 662 659 656 651 643 638 633 623 614 604 592 578 563 548
568 571 574 578 583 588 593 597 602 607 613 621 626 631 636 642 646 651 655 658 662 664 667 668 667 667 666 663 660 657 653 650 643 638 635 627 618 610 600 588 575 562 547
Wind_Speed
45 46 45 47 47 45 44 43 45 43 41 41 43 40 37 33 29 26 22 19 15 13 12 10 10 12 12 12 12 11 12 11 12 23 16 26 29 31 31 33 33 35 36
47 42 46 44 45 46 47 46 45 43 41 41 43 43 40 36 32 29 25 22 18 16 14 13 12 12 12 12 12 13 12 12 13 26 27 27 30 32 35 36 36 35 37
37 43 40 43 43 45 45 47 45 42 41 42 45 46 42 38 34 29 26 23 19 17 16 15 14 13 14 13 10 11 11 12 15 22 38 30 33 33 38 37 38 39 37
41 42 41 42 48 46 44 45 45 44 44 45 46 45 43 39 35 31 27 23 19 17 16 15 14 14 14 13 11 12 12 16 19 24 32 36 33 34 33 36 38 35 36
41 38 42 45 40 38 41 44 43 43 44 47 48 46 44 40 37 33 29 26 22 19 17 15 15 14 13 12 11 13 15 18 19 23 28 33 34 31 28 36 40 43 39
36 39 37 35 39 43 41 42 42 43 43 46 48 49 45 40 36 33 31 27 23 20 18 15 14 13 14 14 15 15 18 21 22 23 25 29 39 36 34 35 39 36 21
36 33 35 37 38 40 39 40 43 45 45 45 45 46 44 40 32 28 27 26 23 19 16 13 12 10 10 9 13 14 19 22 26 30 33 33 42 39 42 43 40 41 43
27 27 32 35 34 35 36 38 40 43 46 44 44 45 43 40 31 31 27 25 21 19 16 15 11 9 10 11 13 18 23 26 27 30 32 36 40 39 39 43 46 46 48
24 29 33 36 33 35 35 36 36 36 37 39 42 42 40 38 29 30 28 25 21 18 15 11 9 10 12 12 16 21 26 27 25 28 35 38 38 41 46 47 42 35 25
20 20 23 26 29 31 30 32 33 35 32 32 36 39 40 40 31 29 26 26 24 20 14 11 11 14 12 13 17 23 21 23 26 31 27 33 37 37 33 31 33 31 31
12 16 22 28 30 29 30 30 29 29 28 28 31 35 38 36 31 27 26 28 26 21 17 16 14 12 12 14 17 19 21 26 25 28 36 31 28 29 30 29 30 34 36
11 14 20 25 26 29 32 29 30 29 26 25 26 25 28 32 32 26 25 22 20 19 18 14 11 9 10 16 18 17 16 20 26 27 24 27 27 28 28 31 34 38 41
12 16 19 21 23 28 29 26 25 28 26 24 25 26 25 30 31 26 28 26 22 21 18 14 10 7 8 12 12 14 14 17 20 21 22 26 28 32 36 37 35 38 42
22 19 21 23 26 28 26 25 25 26 26 27 26 23 24 26 30 29 29 26 21 17 15 13 9 7 5 6 9 11 12 15 17 22 25 30 32 32 34 33 37 38 38
23 20 20 19 28 24 26 32 34 37 40 37 34 32 31 27 33 35 36 30 23 19 15 10 7 4 4 5 8 13 14 16 18 21 25 29 31 32 35 34 35 38 34
19 18 20 22 22 20 21 18 26 23 28 28 28 33 29 23 29 31 27 23 18 16 14 10 7 4 5 7 9 15 17 18 20 22 26 28 30 32 34 35 34 35 33
24 20 20 19 19 22 23 23 15 22 26 30 27 25 25 28 36 31 27 24 20 15 11 10 7 5 6 9 10 12 17 21 22 23 25 28 30 31 34 33 35 34 32
29 26 23 23 25 23 23 21 23 25 22 24 28 30 31 36 32 29 27 24 21 14 15 11 7 4 8 10 11 14 19 23 24 25 28 30 29 30 33 33 34 33 33
27 25 23 20 22 22 23 23 24 24 24 28 31 32 38 35 32 29 25 27 23 17 14 9 6 5 10 12 11 15 19 24 27 29 29 29 29 31 32 36 37 38 38
29 25 22 22 22 23 24 24 24 25 27 27 28 31 36 37 29 29 23 24 20 17 13 9 6 4 10 12 12 16 21 25 28 28 29 30 31 30 34 37 38 36 34
22 20 23 20 21 23 24 25 25 26 27 27 29 30 32 30 30 32 29 23 20 16 11 7 4 6 11 11 12 16 21 25 30 30 29 29 32 33 35 38 40 39 37
17 18 20 19 20 21 22 24 25 27 26 28 28 33 30 34 32 29 26 22 17 13 10 7 7 10 12 12 13 16 22 26 31 31 31 32 30 35 35 38 39 38 37
16 17 16 16 18 21 23 24 25 26 26 28 32 29 28 29 31 29 24 19 15 11 8 7 10 13 14 13 13 16 22 27 31 33 35 34 32 35 37 38 39 37 36
15 15 16 16 17 19 20 21 22 25 28 28 25 25 28 31 30 26 21 17 12 9 7 9 11 15 15 13 13 15 20 24 31 31 33 31 32 36 37 37 38 39 39
16 16 16 17 18 18 20 21 23 25 25 24 24 25 31 30 26 21 17 14 11 8 7 9 11 13 15 15 14 16 19 22 26 29 29 33 31 34 35 36 37 39 39
18 18 17 17 18 19 20 21 21 23 23 23 25 30 30 26 21 17 14 11 8 7 7 9 10 13 15 14 13 16 19 23 25 30 30 35 29 33 35 36 37 37 38
Wind_Direction
218 217 218 221 220 219 222 223 223 222 220 216 207 202 201 200 201 201 203 206 202 196 212 222 237 249 254 266 273 279 278 269 276 293 301 307 307 312 311 309 310 306 304
219 215 219 220 221 217 221 224 223 220 217 214 206 202 201 201 202 203 203 205 202 197 206 220 229 239 244 252 261 268 268 269 277 295 301 307 309 310 307 309 307 302 299
218 219 218 218 218 218 216 221 220 217 214 208 206 203 201 201 202 205 206 206 201 202 208 215 219 226 242 249 251 258 267 280 283 286 294 304 303 309 309 306 302 299 294
222 220 215 215 220 218 214 216 216 213 210 208 207 205 205 203 203 202 202 202 199 205 209 214 217 226 233 241 253 260 272 283 283 280 287 297 302 304 300 299 300 298 297
218 213 215 218 216 215 211 213 213 209 210 209 205 205 205 203 203 200 203 200 198 200 207 217 228 228 228 234 240 264 277 275 263 271 281 291 294 298 298 300 294 297 294
211 215 215 208 208 208 206 204 206 204 204 205 206 204 202 203 203 202 204 198 198 202 210 217 222 223 229 233 245 253 261 266 263 264 277 286 288 292 296 295 294 295 297
214 213 207 203 199 201 198 196 197 198 201 201 202 204 202 202 197 191 194 198 198 204 210 213 217 223 233 242 246 258 266 270 273 280 281 283 290 292 294 291 284 282 279
210 204 204 199 195 190 191 192 192 192 194 195 200 202 203 202 189 187 185 195 197 203 210 218 223 231 238 242 260 265 270 269 271 275 276 284 285 286 283 286 287 279 278
202 202 203 197 190 185 187 189 187 184 188 191 198 198 200 200 189 187 183 195 199 207 210 218 229 238 242 254 269 276 278 276 283 283 287 288 288 289 290 294 288 291 288
211 209 202 194 188 186 188 185 185 188 187 187 190 200 202 201 188 190 187 195 193 198 201 213 223 239 251 260 273 277 279 290 296 297 289 288 295 297 293 281 282 282 281
248 223 208 201 197 194 188 185 182 180 179 182 185 193 199 201 187 190 191 198 199 196 203 213 215 235 256 271 276 287 289 298 298 296 301 296 292 290 287 283 280 276 280
261 218 206 202 196 191 189 179 179 176 172 175 173 180 194 194 187 190 194 204 194 195 205 213 230 241 261 280 284 288 291 296 296 305 298 292 291 292 296 290 284 281 276
228 212 206 196 197 190 181 174 172 175 177 177 179 175 180 190 187 188 194 195 191 195 196 201 212 232 273 280 288 298 298 301 305 293 291 292 293 296 298 292 288 291 288
243 217 195 191 190 188 185 184 183 186 186 181 182 186 179 175 179 183 189 189 189 187 183 196 224 248 256 273 299 316 314 315 297 290 292 296 298 299 300 296 300 301 296
232 213 193 197 187 190 194 191 196 200 194 185 188 179 174 183 186 182 180 180 184 189 196 199 207 217 267 299 318 317 321 322 306 301 299 301 302 302 303 299 297 301 295
221 214 206 193 194 197 196 197 210 212 208 208 196 183 183 189 179 175 167 166 175 180 183 187 182 196 253 291 305 319 328 326 315 306 301 299 298 299 301 301 297 301 296
238 225 208 200 199 192 187 182 185 210 201 196 194 184 173 166 166 168 165 164 157 174 183 185 191 214 259 276 292 311 315 324 317 301 295 294 295 297 303 298 306 304 299
239 228 210 200 194 191 193 190 179 175 184 185 186 171 162 162 166 163 160 155 161 170 174 183 200 223 268 280 300 324 322 327 319 306 297 295 296 301 301 307 308 305 302
235 228 210 201 195 189 182 181 180 180 178 159 154 159 158 158 163 158 157 170 173 168 174 188 211 245 276 287 316 326 321 328 322 304 295 296 301 307 306 310 308 307 304
245 226 198 189 181 180 179 177 176 172 167 163 157 158 156 156 151 154 165 170 171 174 176 193 216 264 284 300 327 325 329 331 321 305 301 302 303 306 316 313 311 310 308
235 205 185 179 178 177 174 175 172 166 162 160 153 159 159 154 147 157 165 171 176 176 178 195 218 269 285 309 321 331 329 324 321 310 301 303 306 319 320 314 311 310 310
195 174 173 171 167 167 169 166 161 160 159 143 151 160 157 157 159 162 166 171 174 177 189 203 242 267 283 301 323 330 319 320 322 318 307 307 310 325 322 317 314 314 314
155 154 154 155 162 162 160 158 158 160 151 152 153 154 152 157 164 166 167 169 175 185 199 228 255 269 279 298 321 320 316 321 323 325 318 308 319 327 323 319 317 317 318
122 130 132 135 140 147 150 149 150 148 143 144 144 145 152 162 163 163 165 169 178 191 216 246 262 271 282 293 308 318 321 325 327 329 327 310 321 325 322 321 320 320 321
103 110 119 126 129 130 130 134 136 135 135 134 138 142 154 158 159 161 166 170 181 196 222 251 268 279 282 292 305 318 324 325 327 335 324 330 322 322 323 323 322 325 326
97 102 106 115 121 127 130 128 127 129 130 133 141 148 154 155 156 160 168 176 192 217 245 264 279 288 288 289 309 320 324 327 333 332 331 337 323 327 329 328 328 329 330